Year,Month,Day,Hour,Minute,Value (Times are PST for temperature in C)
2011,10,16,00,00,3.50
2011,10,16,00,01,3.50
2011,10,16,00,02,3.50
2011,10,16,00,03,3.50
2011,10,16,00,04,3.40
2011,10,16,00,05,3.40
2011,10,16,00,06,3.30
2011,10,16,00,07,3.30
2011,10,16,00,08,3.30
2011,10,16,00,09,3.30
2011,10,16,00,10,3.30
2011,10,16,00,11,3.30
2011,10,16,00,12,3.30
2011,10,16,00,13,3.20
2011,10,16,00,14,3.20
2011,10,16,00,15,3.20
2011,10,16,00,16,3.20
2011,10,16,00,17,3.10
2011,10,16,00,18,3.10
2011,10,16,00,19,3.10
2011,10,16,00,20,3.20
2011,10,16,00,21,3.20
2011,10,16,00,22,3.20
2011,10,16,00,23,3.30
2011,10,16,00,24,3.30
2011,10,16,00,25,3.30
2011,10,16,00,26,3.30
2011,10,16,00,27,3.40
2011,10,16,00,28,3.40
2011,10,16,00,29,3.30
2011,10,16,00,30,3.30
2011,10,16,00,31,3.30
2011,10,16,00,32,3.30
2011,10,16,00,33,3.30
2011,10,16,00,34,3.30
2011,10,16,00,35,3.30
2011,10,16,00,36,3.30
2011,10,16,00,37,3.30
2011,10,16,00,38,3.30
2011,10,16,00,39,3.30
2011,10,16,00,40,3.30
2011,10,16,00,41,3.30
2011,10,16,00,42,3.20
2011,10,16,00,43,3.20
2011,10,16,00,44,3.20
2011,10,16,00,45,3.10
2011,10,16,00,46,3.10
2011,10,16,00,47,3.10
2011,10,16,00,48,3.10
2011,10,16,00,49,3.10
2011,10,16,00,50,3.10
2011,10,16,00,51,3.10
2011,10,16,00,52,3.10
2011,10,16,00,53,3.10
2011,10,16,00,54,3.10
2011,10,16,00,55,3.10
2011,10,16,00,56,3.10
2011,10,16,00,57,3.10
2011,10,16,00,58,3.20
2011,10,16,00,59,3.20
2011,10,16,01,00,3.20
2011,10,16,01,01,3.20
2011,10,16,01,02,3.10
2011,10,16,01,03,3.10
2011,10,16,01,04,3.20
2011,10,16,01,05,3.20
2011,10,16,01,06,3.20
2011,10,16,01,07,3.20
2011,10,16,01,08,3.20
2011,10,16,01,09,3.20
2011,10,16,01,10,3.20
2011,10,16,01,11,3.20
2011,10,16,01,12,3.10
2011,10,16,01,13,3.10
2011,10,16,01,14,3.10
2011,10,16,01,15,3.00
2011,10,16,01,16,2.90
2011,10,16,01,17,2.90
2011,10,16,01,18,2.90
2011,10,16,01,19,2.90
2011,10,16,01,20,2.90
2011,10,16,01,21,2.80
2011,10,16,01,22,2.80
2011,10,16,01,23,2.80
2011,10,16,01,24,2.70
2011,10,16,01,25,2.70
2011,10,16,01,26,2.70
2011,10,16,01,27,2.70
2011,10,16,01,28,2.70
2011,10,16,01,29,2.70
2011,10,16,01,30,2.70
2011,10,16,01,31,2.70
2011,10,16,01,32,2.70
2011,10,16,01,33,2.70
2011,10,16,01,34,2.70
2011,10,16,01,35,2.70
2011,10,16,01,36,2.70
2011,10,16,01,37,2.70
2011,10,16,01,38,2.70
2011,10,16,01,39,2.70
2011,10,16,01,40,2.70
2011,10,16,01,41,2.70
2011,10,16,01,42,2.70
2011,10,16,01,43,2.70
2011,10,16,01,44,2.70
2011,10,16,01,45,2.70
2011,10,16,01,46,2.60
2011,10,16,01,47,2.60
2011,10,16,01,48,2.50
2011,10,16,01,49,2.50
2011,10,16,01,50,2.50
2011,10,16,01,51,2.40
2011,10,16,01,52,2.40
2011,10,16,01,53,2.40
2011,10,16,01,54,2.40
2011,10,16,01,55,2.40
2011,10,16,01,56,2.40
2011,10,16,01,57,2.40
2011,10,16,01,58,2.50
2011,10,16,01,59,2.50
2011,10,16,02,00,2.40
2011,10,16,02,01,2.40
2011,10,16,02,02,2.40
2011,10,16,02,03,2.30
2011,10,16,02,04,2.30
2011,10,16,02,05,2.30
2011,10,16,02,06,2.20
2011,10,16,02,07,2.20
2011,10,16,02,08,2.20
2011,10,16,02,09,2.20
2011,10,16,02,10,2.20
2011,10,16,02,11,2.20
2011,10,16,02,12,2.10
2011,10,16,02,13,2.10
2011,10,16,02,14,2.10
2011,10,16,02,15,2.10
2011,10,16,02,16,2.10
2011,10,16,02,17,2.10
2011,10,16,02,18,2.00
2011,10,16,02,19,2.00
2011,10,16,02,20,2.00
2011,10,16,02,21,1.90
2011,10,16,02,22,1.90
2011,10,16,02,23,1.90
2011,10,16,02,24,1.90
2011,10,16,02,25,1.90
2011,10,16,02,26,1.90
2011,10,16,02,27,1.90
2011,10,16,02,28,2.00
2011,10,16,02,29,2.00
2011,10,16,02,30,2.00
2011,10,16,02,31,2.10
2011,10,16,02,32,2.10
2011,10,16,02,33,2.10
2011,10,16,02,34,2.10
2011,10,16,02,35,2.10
2011,10,16,02,36,2.10
2011,10,16,02,37,2.10
2011,10,16,02,38,2.10
2011,10,16,02,39,2.10
2011,10,16,02,40,2.10
2011,10,16,02,41,2.20
2011,10,16,02,42,2.20
2011,10,16,02,43,2.20
2011,10,16,02,44,2.20
2011,10,16,02,45,2.20
2011,10,16,02,46,2.20
2011,10,16,02,47,2.20
2011,10,16,02,48,2.20
2011,10,16,02,49,2.20
2011,10,16,02,50,2.20
2011,10,16,02,51,2.20
2011,10,16,02,52,2.20
2011,10,16,02,53,2.20
2011,10,16,02,54,2.20
2011,10,16,02,55,2.10
2011,10,16,02,56,2.10
2011,10,16,02,57,2.10
2011,10,16,02,58,2.00
2011,10,16,02,59,2.00
2011,10,16,03,00,2.00
2011,10,16,03,01,2.10
2011,10,16,03,02,2.10
2011,10,16,03,03,2.10
2011,10,16,03,04,2.20
2011,10,16,03,05,2.20
2011,10,16,03,06,2.20
2011,10,16,03,07,2.20
2011,10,16,03,08,2.20
2011,10,16,03,09,2.20
2011,10,16,03,10,2.20
2011,10,16,03,11,2.20
2011,10,16,03,12,2.20
2011,10,16,03,13,2.20
2011,10,16,03,14,2.20
2011,10,16,03,15,2.20
2011,10,16,03,16,2.20
2011,10,16,03,17,2.20
2011,10,16,03,18,2.20
2011,10,16,03,19,2.20
2011,10,16,03,20,2.20
2011,10,16,03,21,2.20
2011,10,16,03,22,2.30
2011,10,16,03,23,2.30
2011,10,16,03,24,2.30
2011,10,16,03,25,2.30
2011,10,16,03,26,2.20
2011,10,16,03,27,2.20
2011,10,16,03,28,2.20
2011,10,16,03,29,2.10
2011,10,16,03,30,2.00
2011,10,16,03,31,2.00
2011,10,16,03,32,1.90
2011,10,16,03,33,1.90
2011,10,16,03,34,1.80
2011,10,16,03,35,1.80
2011,10,16,03,36,1.80
2011,10,16,03,37,1.80
2011,10,16,03,38,1.70
2011,10,16,03,39,1.70
2011,10,16,03,40,1.60
2011,10,16,03,41,1.60
2011,10,16,03,42,1.60
2011,10,16,03,43,1.60
2011,10,16,03,44,1.60
2011,10,16,03,45,1.60
2011,10,16,03,46,1.60
2011,10,16,03,47,1.70
2011,10,16,03,48,1.70
2011,10,16,03,49,1.70
2011,10,16,03,50,1.70
2011,10,16,03,51,1.70
2011,10,16,03,52,1.70
2011,10,16,03,53,1.70
2011,10,16,03,54,1.80
2011,10,16,03,55,1.80
2011,10,16,03,56,1.80
2011,10,16,03,57,1.80
2011,10,16,03,58,1.80
2011,10,16,03,59,1.80
2011,10,16,04,00,1.80
2011,10,16,04,01,1.90
2011,10,16,04,02,1.90
2011,10,16,04,03,1.90
2011,10,16,04,04,1.90
2011,10,16,04,05,1.90
2011,10,16,04,06,1.80
2011,10,16,04,07,1.80
2011,10,16,04,08,1.80
2011,10,16,04,09,1.80
2011,10,16,04,10,1.70
2011,10,16,04,11,1.70
2011,10,16,04,12,1.60
2011,10,16,04,13,1.60
2011,10,16,04,14,1.60
2011,10,16,04,15,1.60
2011,10,16,04,16,1.60
2011,10,16,04,17,1.60
2011,10,16,04,18,1.60
2011,10,16,04,19,1.60
2011,10,16,04,20,1.70
2011,10,16,04,21,1.70
2011,10,16,04,22,1.70
2011,10,16,04,23,1.80
2011,10,16,04,24,1.70
2011,10,16,04,25,1.70
2011,10,16,04,26,1.70
2011,10,16,04,27,1.70
2011,10,16,04,28,1.60
2011,10,16,04,29,1.60
2011,10,16,04,30,1.60
2011,10,16,04,31,1.60
2011,10,16,04,32,1.70
2011,10,16,04,33,1.70
2011,10,16,04,34,1.80
2011,10,16,04,35,1.80
2011,10,16,04,36,1.80
2011,10,16,04,37,1.80
2011,10,16,04,38,1.90
2011,10,16,04,39,1.90
2011,10,16,04,40,1.90
2011,10,16,04,41,1.90
2011,10,16,04,42,1.90
2011,10,16,04,43,1.80
2011,10,16,04,44,1.80
2011,10,16,04,45,1.80
2011,10,16,04,46,1.80
2011,10,16,04,47,1.80
2011,10,16,04,48,1.90
2011,10,16,04,49,1.90
2011,10,16,04,50,1.90
2011,10,16,04,51,1.90
2011,10,16,04,52,1.80
2011,10,16,04,53,1.80
2011,10,16,04,54,1.80
2011,10,16,04,55,1.80
2011,10,16,04,56,1.80
2011,10,16,04,57,1.80
2011,10,16,04,58,1.80
2011,10,16,04,59,1.90
2011,10,16,05,00,1.90
2011,10,16,05,01,1.90
2011,10,16,05,02,1.90
2011,10,16,05,03,1.90
2011,10,16,05,04,1.90
2011,10,16,05,05,1.90
2011,10,16,05,06,2.00
2011,10,16,05,07,2.00
2011,10,16,05,08,2.00
2011,10,16,05,09,2.00
2011,10,16,05,10,1.90
2011,10,16,05,11,1.90
2011,10,16,05,12,1.80
2011,10,16,05,13,1.80
2011,10,16,05,14,1.80
2011,10,16,05,15,1.80
2011,10,16,05,16,1.80
2011,10,16,05,17,1.80
2011,10,16,05,18,1.80
2011,10,16,05,19,1.80
2011,10,16,05,20,1.80
2011,10,16,05,21,1.80
2011,10,16,05,22,1.70
2011,10,16,05,23,1.70
2011,10,16,05,24,1.60
2011,10,16,05,25,1.60
2011,10,16,05,26,1.50
2011,10,16,05,27,1.50
2011,10,16,05,28,1.50
2011,10,16,05,29,1.50
2011,10,16,05,30,1.50
2011,10,16,05,31,1.50
2011,10,16,05,32,1.50
2011,10,16,05,33,1.40
2011,10,16,05,34,1.40
2011,10,16,05,35,1.40
2011,10,16,05,36,1.40
2011,10,16,05,37,1.40
2011,10,16,05,38,1.40
2011,10,16,05,39,1.40
2011,10,16,05,40,1.50
2011,10,16,05,41,1.50
2011,10,16,05,42,1.60
2011,10,16,05,43,1.60
2011,10,16,05,44,1.60
2011,10,16,05,45,1.60
2011,10,16,05,46,1.50
2011,10,16,05,47,1.50
2011,10,16,05,48,1.40
2011,10,16,05,49,1.40
2011,10,16,05,50,1.30
2011,10,16,05,51,1.30
2011,10,16,05,52,1.30
2011,10,16,05,53,1.30
2011,10,16,05,54,1.30
2011,10,16,05,55,1.30
2011,10,16,05,56,1.30
2011,10,16,05,57,1.30
2011,10,16,05,58,1.30
2011,10,16,05,59,1.30
2011,10,16,06,00,1.30
2011,10,16,06,01,1.30
2011,10,16,06,02,1.30
2011,10,16,06,03,1.30
2011,10,16,06,04,1.30
2011,10,16,06,05,1.30
2011,10,16,06,06,1.30
2011,10,16,06,07,1.20
2011,10,16,06,08,1.20
2011,10,16,06,09,1.30
2011,10,16,06,10,1.30
2011,10,16,06,11,1.30
2011,10,16,06,12,1.20
2011,10,16,06,13,1.20
2011,10,16,06,14,1.20
2011,10,16,06,15,1.20
2011,10,16,06,16,1.20
2011,10,16,06,17,1.20
2011,10,16,06,18,1.10
2011,10,16,06,19,1.10
2011,10,16,06,20,1.10
2011,10,16,06,21,1.10
2011,10,16,06,22,1.10
2011,10,16,06,23,1.10
2011,10,16,06,24,1.10
2011,10,16,06,25,1.00
2011,10,16,06,26,1.00
2011,10,16,06,27,1.10
2011,10,16,06,28,1.10
2011,10,16,06,29,1.20
2011,10,16,06,30,1.30
2011,10,16,06,31,1.40
2011,10,16,06,32,1.50
2011,10,16,06,33,1.50
2011,10,16,06,34,1.50
2011,10,16,06,35,1.50
2011,10,16,06,36,1.60
2011,10,16,06,37,1.60
2011,10,16,06,38,1.60
2011,10,16,06,39,1.50
2011,10,16,06,40,1.50
2011,10,16,06,41,1.50
2011,10,16,06,42,1.50
2011,10,16,06,43,1.40
2011,10,16,06,44,1.40
2011,10,16,06,45,1.40
2011,10,16,06,46,1.40
2011,10,16,06,47,1.40
2011,10,16,06,48,1.40
2011,10,16,06,49,1.40
2011,10,16,06,50,1.40
2011,10,16,06,51,1.30
2011,10,16,06,52,1.30
2011,10,16,06,53,1.30
2011,10,16,06,54,1.30
2011,10,16,06,55,1.30
2011,10,16,06,56,1.30
2011,10,16,06,57,1.30
2011,10,16,06,58,1.30
2011,10,16,06,59,1.30
2011,10,16,07,00,1.20
2011,10,16,07,01,1.20
2011,10,16,07,02,1.20
2011,10,16,07,03,1.20
2011,10,16,07,04,1.20
2011,10,16,07,05,1.20
2011,10,16,07,06,1.20
2011,10,16,07,07,1.20
2011,10,16,07,08,1.30
2011,10,16,07,09,1.30
2011,10,16,07,10,1.20
2011,10,16,07,11,1.20
2011,10,16,07,12,1.20
2011,10,16,07,13,1.10
2011,10,16,07,14,1.20
2011,10,16,07,15,1.20
2011,10,16,07,16,1.20
2011,10,16,07,17,1.20
2011,10,16,07,18,1.20
2011,10,16,07,19,1.20
2011,10,16,07,20,1.20
2011,10,16,07,21,1.20
2011,10,16,07,22,1.20
2011,10,16,07,23,1.20
2011,10,16,07,24,1.20
2011,10,16,07,25,1.20
2011,10,16,07,26,1.20
2011,10,16,07,27,1.20
2011,10,16,07,28,1.30
2011,10,16,07,29,1.30
2011,10,16,07,30,1.30
2011,10,16,07,31,1.30
2011,10,16,07,32,1.30
2011,10,16,07,33,1.30
2011,10,16,07,34,1.30
2011,10,16,07,35,1.30
2011,10,16,07,36,1.30
2011,10,16,07,37,1.30
2011,10,16,07,38,1.30
2011,10,16,07,39,1.20
2011,10,16,07,40,1.20
2011,10,16,07,41,1.20
2011,10,16,07,42,1.20
2011,10,16,07,43,1.20
2011,10,16,07,44,1.20
2011,10,16,07,45,1.20
2011,10,16,07,46,1.20
2011,10,16,07,47,1.20
2011,10,16,07,48,1.20
2011,10,16,07,49,1.20
2011,10,16,07,50,1.20
2011,10,16,07,51,1.20
2011,10,16,07,52,1.20
2011,10,16,07,53,1.20
2011,10,16,07,54,1.20
2011,10,16,07,55,1.20
2011,10,16,07,56,1.10
2011,10,16,07,57,1.10
2011,10,16,07,58,1.10
2011,10,16,07,59,1.20
2011,10,16,08,00,1.20
2011,10,16,08,01,1.30
2011,10,16,08,02,1.30
2011,10,16,08,03,1.30
2011,10,16,08,04,1.30
2011,10,16,08,05,1.30
2011,10,16,08,06,1.30
2011,10,16,08,07,1.40
2011,10,16,08,08,1.40
2011,10,16,08,09,1.40
2011,10,16,08,10,1.40
2011,10,16,08,11,1.40
2011,10,16,08,12,1.50
2011,10,16,08,13,1.50
2011,10,16,08,14,1.50
2011,10,16,08,15,1.60
2011,10,16,08,16,1.70
2011,10,16,08,17,1.80
2011,10,16,08,18,1.80
2011,10,16,08,19,1.80
2011,10,16,08,20,1.80
2011,10,16,08,21,1.90
2011,10,16,08,22,1.90
2011,10,16,08,23,1.90
2011,10,16,08,24,2.00
2011,10,16,08,25,2.00
2011,10,16,08,26,2.00
2011,10,16,08,27,2.00
2011,10,16,08,28,2.00
2011,10,16,08,29,2.10
2011,10,16,08,30,2.10
2011,10,16,08,31,2.10
2011,10,16,08,32,2.20
2011,10,16,08,33,2.20
2011,10,16,08,34,2.20
2011,10,16,08,35,2.20
2011,10,16,08,36,2.20
2011,10,16,08,37,2.20
2011,10,16,08,38,2.30
2011,10,16,08,39,2.30
2011,10,16,08,40,2.40
2011,10,16,08,41,2.40
2011,10,16,08,42,2.50
2011,10,16,08,43,2.60
2011,10,16,08,44,2.60
2011,10,16,08,45,2.70
2011,10,16,08,46,2.70
2011,10,16,08,47,2.80
2011,10,16,08,48,2.80
2011,10,16,08,49,2.90
2011,10,16,08,50,2.90
2011,10,16,08,51,3.00
2011,10,16,08,52,3.10
2011,10,16,08,53,3.10
2011,10,16,08,54,3.20
2011,10,16,08,55,3.30
2011,10,16,08,56,3.30
2011,10,16,08,57,3.40
2011,10,16,08,58,3.50
2011,10,16,08,59,3.60
2011,10,16,09,00,3.70
2011,10,16,09,01,3.80
2011,10,16,09,02,3.80
2011,10,16,09,03,4.00
2011,10,16,09,04,4.00
2011,10,16,09,05,4.10
2011,10,16,09,06,4.20
2011,10,16,09,07,4.20
2011,10,16,09,08,4.30
2011,10,16,09,09,4.30
2011,10,16,09,10,4.40
2011,10,16,09,11,4.50
2011,10,16,09,12,4.60
2011,10,16,09,13,4.60
2011,10,16,09,14,4.80
2011,10,16,09,15,4.90
2011,10,16,09,16,5.10
2011,10,16,09,17,5.20
2011,10,16,09,18,5.30
2011,10,16,09,19,5.50
2011,10,16,09,20,5.50
2011,10,16,09,21,5.60
2011,10,16,09,22,5.60
2011,10,16,09,23,5.70
2011,10,16,09,24,5.70
2011,10,16,09,25,5.70
2011,10,16,09,26,5.80
2011,10,16,09,27,5.80
2011,10,16,09,28,5.80
2011,10,16,09,29,5.80
2011,10,16,09,30,5.70
2011,10,16,09,31,5.70
2011,10,16,09,32,5.70
2011,10,16,09,33,5.80
2011,10,16,09,34,5.80
2011,10,16,09,35,5.90
2011,10,16,09,36,6.00
2011,10,16,09,37,6.10
2011,10,16,09,38,6.20
2011,10,16,09,39,6.30
2011,10,16,09,40,6.40
2011,10,16,09,41,6.50
2011,10,16,09,42,6.60
2011,10,16,09,43,6.70
2011,10,16,09,44,6.80
2011,10,16,09,45,6.90
2011,10,16,09,46,7.00
2011,10,16,09,47,7.10
2011,10,16,09,48,7.20
2011,10,16,09,49,7.30
2011,10,16,09,50,7.40
2011,10,16,09,51,7.40
2011,10,16,09,52,7.50
2011,10,16,09,53,7.60
2011,10,16,09,54,7.70
2011,10,16,09,55,7.80
2011,10,16,09,56,7.80
2011,10,16,09,57,7.80
2011,10,16,09,58,7.90
2011,10,16,09,59,7.90
2011,10,16,10,00,7.90
2011,10,16,10,01,7.90
2011,10,16,10,02,7.90
2011,10,16,10,03,8.00
2011,10,16,10,04,8.00
2011,10,16,10,05,8.00
2011,10,16,10,06,8.00
2011,10,16,10,07,8.00
2011,10,16,10,08,8.00
2011,10,16,10,09,8.10
2011,10,16,10,10,8.20
2011,10,16,10,11,8.20
2011,10,16,10,12,8.20
2011,10,16,10,13,8.40
2011,10,16,10,14,8.40
2011,10,16,10,15,8.50
2011,10,16,10,16,8.50
2011,10,16,10,17,8.60
2011,10,16,10,18,8.60
2011,10,16,10,19,8.60
2011,10,16,10,20,8.60
2011,10,16,10,21,8.60
2011,10,16,10,22,8.70
2011,10,16,10,23,8.70
2011,10,16,10,24,8.80
2011,10,16,10,25,8.90
2011,10,16,10,26,9.00
2011,10,16,10,27,9.10
2011,10,16,10,28,9.20
2011,10,16,10,29,9.20
2011,10,16,10,30,9.30
2011,10,16,10,31,9.40
2011,10,16,10,32,9.50
2011,10,16,10,33,9.50
2011,10,16,10,34,9.50
2011,10,16,10,35,9.60
2011,10,16,10,36,9.60
2011,10,16,10,37,9.70
2011,10,16,10,38,9.70
2011,10,16,10,39,9.80
2011,10,16,10,40,9.90
2011,10,16,10,41,9.90
2011,10,16,10,42,9.90
2011,10,16,10,43,9.90
2011,10,16,10,44,9.90
2011,10,16,10,45,9.90
2011,10,16,10,46,9.90
2011,10,16,10,47,10.10
2011,10,16,10,48,10.20
2011,10,16,10,49,10.30
2011,10,16,10,50,10.30
2011,10,16,10,51,10.40
2011,10,16,10,52,10.40
2011,10,16,10,53,10.50
2011,10,16,10,54,10.40
2011,10,16,10,55,10.40
2011,10,16,10,56,10.30
2011,10,16,10,57,10.30
2011,10,16,10,58,10.30
2011,10,16,10,59,10.20
2011,10,16,11,00,10.20
2011,10,16,11,01,10.20
2011,10,16,11,02,10.30
2011,10,16,11,03,10.30
2011,10,16,11,04,10.40
2011,10,16,11,05,10.60
2011,10,16,11,06,10.60
2011,10,16,11,07,10.60
2011,10,16,11,08,10.50
2011,10,16,11,09,10.40
2011,10,16,11,10,10.40
2011,10,16,11,11,10.40
2011,10,16,11,12,10.40
2011,10,16,11,13,10.30
2011,10,16,11,14,10.30
2011,10,16,11,15,10.20
2011,10,16,11,16,10.20
2011,10,16,11,17,10.20
2011,10,16,11,18,10.20
2011,10,16,11,19,10.30
2011,10,16,11,20,10.30
2011,10,16,11,21,10.30
2011,10,16,11,22,10.30
2011,10,16,11,23,10.20
2011,10,16,11,24,10.10
2011,10,16,11,25,10.10
2011,10,16,11,26,10.10
2011,10,16,11,27,10.10
2011,10,16,11,28,10.10
2011,10,16,11,29,10.10
2011,10,16,11,30,10.20
2011,10,16,11,31,10.30
2011,10,16,11,32,10.40
2011,10,16,11,33,10.40
2011,10,16,11,34,10.40
2011,10,16,11,35,10.50
2011,10,16,11,36,10.60
2011,10,16,11,37,10.60
2011,10,16,11,38,10.60
2011,10,16,11,39,10.60
2011,10,16,11,40,10.70
2011,10,16,11,41,10.80
2011,10,16,11,42,10.70
2011,10,16,11,43,10.60
2011,10,16,11,44,10.60
2011,10,16,11,45,10.60
2011,10,16,11,46,10.70
2011,10,16,11,47,10.70
2011,10,16,11,48,10.60
2011,10,16,11,49,10.60
2011,10,16,11,50,10.80
2011,10,16,11,51,10.90
2011,10,16,11,52,10.90
2011,10,16,11,53,10.90
2011,10,16,11,54,11.10
2011,10,16,11,55,11.10
2011,10,16,11,56,11.10
2011,10,16,11,57,11.10
2011,10,16,11,58,10.90
2011,10,16,11,59,10.60
2011,10,16,12,00,10.40
2011,10,16,12,01,10.40
2011,10,16,12,02,10.30
2011,10,16,12,03,10.30
2011,10,16,12,04,10.20
2011,10,16,12,05,10.20
2011,10,16,12,06,10.20
2011,10,16,12,07,10.10
2011,10,16,12,08,10.10
2011,10,16,12,09,10.10
2011,10,16,12,10,10.00
2011,10,16,12,11,9.90
2011,10,16,12,12,9.90
2011,10,16,12,13,9.80
2011,10,16,12,14,9.70
2011,10,16,12,15,9.60
2011,10,16,12,16,9.50
2011,10,16,12,17,9.50
2011,10,16,12,18,9.60
2011,10,16,12,19,9.60
2011,10,16,12,20,9.60
2011,10,16,12,21,9.70
2011,10,16,12,22,9.60
2011,10,16,12,23,9.60
2011,10,16,12,24,9.50
2011,10,16,12,25,9.50
2011,10,16,12,26,9.50
2011,10,16,12,27,9.50
2011,10,16,12,28,9.50
2011,10,16,12,29,9.50
2011,10,16,12,30,9.50
2011,10,16,12,31,9.50
2011,10,16,12,32,9.60
2011,10,16,12,33,9.60
2011,10,16,12,34,9.60
2011,10,16,12,35,9.60
2011,10,16,12,36,9.60
2011,10,16,12,37,9.60
2011,10,16,12,38,9.60
2011,10,16,12,39,9.60
2011,10,16,12,40,9.60
2011,10,16,12,41,9.60
2011,10,16,12,42,9.50
2011,10,16,12,43,9.50
2011,10,16,12,44,9.50
2011,10,16,12,45,9.50
2011,10,16,12,46,9.50
2011,10,16,12,47,9.40
2011,10,16,12,48,9.40
2011,10,16,12,49,9.40
2011,10,16,12,50,9.40
2011,10,16,12,51,9.50
2011,10,16,12,52,9.50
2011,10,16,12,53,9.50
2011,10,16,12,54,9.60
2011,10,16,12,55,9.70
2011,10,16,12,56,9.70
2011,10,16,12,57,9.70
2011,10,16,12,58,9.70
2011,10,16,12,59,9.60
2011,10,16,13,00,9.60
2011,10,16,13,01,9.60
2011,10,16,13,02,9.60
2011,10,16,13,03,9.60
2011,10,16,13,04,9.60
2011,10,16,13,05,9.60
2011,10,16,13,06,9.60
2011,10,16,13,07,9.60
2011,10,16,13,08,9.60
2011,10,16,13,09,9.50
2011,10,16,13,10,9.50
2011,10,16,13,11,9.50
2011,10,16,13,12,9.60
2011,10,16,13,13,9.70
2011,10,16,13,14,9.70
2011,10,16,13,15,9.60
2011,10,16,13,16,9.60
2011,10,16,13,17,9.60
2011,10,16,13,18,9.50
2011,10,16,13,19,9.50
2011,10,16,13,20,9.60
2011,10,16,13,21,9.60
2011,10,16,13,22,9.70
2011,10,16,13,23,9.70
2011,10,16,13,24,9.70
2011,10,16,13,25,9.70
2011,10,16,13,26,9.70
2011,10,16,13,27,9.70
2011,10,16,13,28,9.90
2011,10,16,13,29,9.90
2011,10,16,13,30,9.80
2011,10,16,13,31,9.70
2011,10,16,13,32,9.70
2011,10,16,13,33,9.70
2011,10,16,13,34,9.70
2011,10,16,13,35,9.70
2011,10,16,13,36,9.80
2011,10,16,13,37,9.70
2011,10,16,13,38,9.70
2011,10,16,13,39,9.70
2011,10,16,13,40,9.70
2011,10,16,13,41,9.70
2011,10,16,13,42,9.70
2011,10,16,13,43,9.80
2011,10,16,13,44,9.80
2011,10,16,13,45,9.90
2011,10,16,13,46,10.00
2011,10,16,13,47,10.10
2011,10,16,13,48,10.10
2011,10,16,13,49,10.10
2011,10,16,13,50,10.10
2011,10,16,13,51,10.10
2011,10,16,13,52,10.10
2011,10,16,13,53,10.20
2011,10,16,13,54,10.20
2011,10,16,13,55,10.10
2011,10,16,13,56,10.20
2011,10,16,13,57,10.20
2011,10,16,13,58,10.20
2011,10,16,13,59,10.20
2011,10,16,14,00,10.20
2011,10,16,14,01,10.20
2011,10,16,14,02,10.20
2011,10,16,14,03,10.10
2011,10,16,14,04,10.10
2011,10,16,14,05,10.10
2011,10,16,14,06,10.10
2011,10,16,14,07,10.10
2011,10,16,14,08,10.10
2011,10,16,14,09,10.00
2011,10,16,14,10,9.90
2011,10,16,14,11,9.90
2011,10,16,14,12,9.90
2011,10,16,14,13,10.00
2011,10,16,14,14,10.10
2011,10,16,14,15,10.10
2011,10,16,14,16,10.10
2011,10,16,14,17,10.10
2011,10,16,14,18,10.10
2011,10,16,14,19,10.10
2011,10,16,14,20,10.10
2011,10,16,14,21,10.10
2011,10,16,14,22,10.10
2011,10,16,14,23,10.10
2011,10,16,14,24,10.10
2011,10,16,14,25,10.20
2011,10,16,14,26,10.10
2011,10,16,14,27,10.10
2011,10,16,14,28,10.20
2011,10,16,14,29,10.20
2011,10,16,14,30,10.20
2011,10,16,14,31,10.10
2011,10,16,14,32,10.10
2011,10,16,14,33,10.10
2011,10,16,14,34,10.20
2011,10,16,14,35,10.20
2011,10,16,14,36,10.10
2011,10,16,14,37,10.20
2011,10,16,14,38,10.20
2011,10,16,14,39,10.20
2011,10,16,14,40,10.20
2011,10,16,14,41,10.20
2011,10,16,14,42,10.20
2011,10,16,14,43,10.20
2011,10,16,14,44,10.20
2011,10,16,14,45,10.20
2011,10,16,14,46,10.20
2011,10,16,14,47,10.20
2011,10,16,14,48,10.10
2011,10,16,14,49,10.10
2011,10,16,14,50,10.10
2011,10,16,14,51,10.10
2011,10,16,14,52,10.10
2011,10,16,14,53,10.20
2011,10,16,14,54,10.20
2011,10,16,14,55,10.20
2011,10,16,14,56,10.20
2011,10,16,14,57,10.20
2011,10,16,14,58,10.20
2011,10,16,14,59,10.20
2011,10,16,15,00,10.20
2011,10,16,15,01,10.10
2011,10,16,15,02,10.10
2011,10,16,15,03,10.10
2011,10,16,15,04,10.10
2011,10,16,15,05,10.10
2011,10,16,15,06,10.10
2011,10,16,15,07,10.10
2011,10,16,15,08,10.10
2011,10,16,15,09,10.10
2011,10,16,15,10,10.10
2011,10,16,15,11,10.10
2011,10,16,15,12,10.10
2011,10,16,15,13,10.10
2011,10,16,15,14,10.10
2011,10,16,15,15,10.10
2011,10,16,15,16,10.10
2011,10,16,15,17,10.10
2011,10,16,15,18,10.10
2011,10,16,15,19,10.10
2011,10,16,15,20,10.10
2011,10,16,15,21,10.10
2011,10,16,15,22,10.10
2011,10,16,15,23,10.10
2011,10,16,15,24,10.10
2011,10,16,15,25,10.10
2011,10,16,15,26,10.10
2011,10,16,15,27,10.10
2011,10,16,15,28,10.10
2011,10,16,15,29,10.10
2011,10,16,15,30,10.10
2011,10,16,15,31,10.10
2011,10,16,15,32,10.20
2011,10,16,15,33,10.20
2011,10,16,15,34,10.30
2011,10,16,15,35,10.30
2011,10,16,15,36,10.30
2011,10,16,15,37,10.30
2011,10,16,15,38,10.30
2011,10,16,15,39,10.20
2011,10,16,15,40,10.30
2011,10,16,15,41,10.30
2011,10,16,15,42,10.30
2011,10,16,15,43,10.30
2011,10,16,15,44,10.30
2011,10,16,15,45,10.30
2011,10,16,15,46,10.20
2011,10,16,15,47,10.20
2011,10,16,15,48,10.20
2011,10,16,15,49,10.20
2011,10,16,15,50,10.10
2011,10,16,15,51,10.10
2011,10,16,15,52,10.10
2011,10,16,15,53,10.20
2011,10,16,15,54,10.20
2011,10,16,15,55,10.20
2011,10,16,15,56,10.10
2011,10,16,15,57,10.10
2011,10,16,15,58,10.10
2011,10,16,15,59,10.10
2011,10,16,16,00,10.10
2011,10,16,16,01,10.10
2011,10,16,16,02,10.10
2011,10,16,16,03,10.10
2011,10,16,16,04,10.10
2011,10,16,16,05,10.20
2011,10,16,16,06,10.20
2011,10,16,16,07,10.20
2011,10,16,16,08,10.30
2011,10,16,16,09,10.30
2011,10,16,16,10,10.20
2011,10,16,16,11,10.10
2011,10,16,16,12,10.10
2011,10,16,16,13,10.10
2011,10,16,16,14,10.10
2011,10,16,16,15,10.10
2011,10,16,16,16,10.10
2011,10,16,16,17,10.10
2011,10,16,16,18,10.10
2011,10,16,16,19,10.10
2011,10,16,16,20,10.10
2011,10,16,16,21,10.10
2011,10,16,16,22,10.10
2011,10,16,16,23,10.10
2011,10,16,16,24,10.10
2011,10,16,16,25,10.10
2011,10,16,16,26,10.10
2011,10,16,16,27,10.20
2011,10,16,16,28,10.20
2011,10,16,16,29,10.20
2011,10,16,16,30,10.30
2011,10,16,16,31,10.30
2011,10,16,16,32,10.20
2011,10,16,16,33,10.20
2011,10,16,16,34,10.20
2011,10,16,16,35,10.20
2011,10,16,16,36,10.10
2011,10,16,16,37,10.10
2011,10,16,16,38,10.10
2011,10,16,16,39,10.10
2011,10,16,16,40,10.10
2011,10,16,16,41,10.10
2011,10,16,16,42,10.10
2011,10,16,16,43,10.10
2011,10,16,16,44,10.10
2011,10,16,16,45,10.10
2011,10,16,16,46,10.10
2011,10,16,16,47,10.10
2011,10,16,16,48,10.10
2011,10,16,16,49,10.10
2011,10,16,16,50,10.10
2011,10,16,16,51,10.10
2011,10,16,16,52,10.10
2011,10,16,16,53,10.10
2011,10,16,16,54,10.10
2011,10,16,16,55,10.10
2011,10,16,16,56,10.10
2011,10,16,16,57,10.10
2011,10,16,16,58,10.10
2011,10,16,16,59,10.10
2011,10,16,17,00,10.00
2011,10,16,17,01,9.90
2011,10,16,17,02,9.90
2011,10,16,17,03,9.90
2011,10,16,17,04,9.90
2011,10,16,17,05,9.90
2011,10,16,17,06,9.90
2011,10,16,17,07,9.90
2011,10,16,17,08,9.90
2011,10,16,17,09,9.90
2011,10,16,17,10,9.90
2011,10,16,17,11,9.90
2011,10,16,17,12,9.90
2011,10,16,17,13,9.90
2011,10,16,17,14,9.90
2011,10,16,17,15,9.80
2011,10,16,17,16,9.80
2011,10,16,17,17,9.80
2011,10,16,17,18,9.80
2011,10,16,17,19,9.80
2011,10,16,17,20,9.80
2011,10,16,17,21,9.80
2011,10,16,17,22,9.80
2011,10,16,17,23,9.80
2011,10,16,17,24,9.70
2011,10,16,17,25,9.70
2011,10,16,17,26,9.70
2011,10,16,17,27,9.70
2011,10,16,17,28,9.80
2011,10,16,17,29,9.80
2011,10,16,17,30,9.80
2011,10,16,17,31,9.70
2011,10,16,17,32,9.70
2011,10,16,17,33,9.70
2011,10,16,17,34,9.70
2011,10,16,17,35,9.70
2011,10,16,17,36,9.70
2011,10,16,17,37,9.70
2011,10,16,17,38,9.70
2011,10,16,17,39,9.70
2011,10,16,17,40,9.60
2011,10,16,17,41,9.60
2011,10,16,17,42,9.60
2011,10,16,17,43,9.60
2011,10,16,17,44,9.60
2011,10,16,17,45,9.50
2011,10,16,17,46,9.50
2011,10,16,17,47,9.50
2011,10,16,17,48,9.50
2011,10,16,17,49,9.50
2011,10,16,17,50,9.50
2011,10,16,17,51,9.40
2011,10,16,17,52,9.40
2011,10,16,17,53,9.40
2011,10,16,17,54,9.30